Location: Auckland
(36.8670°S, 174.7670°E)
Time: 00:53:16
(UTC+12:00)

Courier 1B Rocket - All Passes

Search period start: 19 July 2019 00:00
Search period end: 29 July 2019 00:00
Orbit: 921 x 1202 km, 28.2° (Epoch: 17 July)

Date Brightness Start Highest point End Pass type
(mag) Time Alt. Az. Time Alt. Az. Time Alt. Az.
19 Jul - 04:20:43 10° NNW 04:26:11 21° NNE 04:31:28 10° ENE visible
19 Jul - 06:12:26 10° NW 06:19:11 37° N 06:25:32 10° ENE visible
19 Jul - 08:05:37 10° WNW 08:12:16 41° N 08:18:29 10° ENE daylight
19 Jul - 09:59:33 10° WNW 10:05:08 27° NNW 10:10:25 10° NE daylight
20 Jul - 03:20:49 10° N 03:25:14 16° NNE 03:29:34 10° ENE visible
20 Jul - 05:11:31 10° NW 05:18:10 33° NNE 05:24:29 10° ENE visible
20 Jul - 07:04:23 10° WNW 07:11:17 42° N 07:17:44 10° ENE daylight
20 Jul - 08:58:05 10° WNW 09:04:17 33° NNW 09:10:07 10° NE daylight
20 Jul - 10:53:15 10° WNW 10:56:52 15° NNW 11:00:24 10° N daylight
21 Jul - 02:22:09 10° NNE 02:24:18 11° NNE 02:26:26 10° NE visible
21 Jul - 04:10:48 10° NW 04:17:09 28° NNE 04:23:15 10° ENE visible
21 Jul - 06:03:13 10° WNW 06:10:15 42° N 06:16:51 10° ENE visible
21 Jul - 07:56:43 10° WNW 08:03:22 38° N 08:09:36 10° NE daylight
21 Jul - 09:51:07 10° WNW 09:56:08 21° NNW 10:00:55 10° NNE daylight
22 Jul - 03:10:24 10° NNW 03:16:08 22° NNE 03:21:45 10° ENE visible
22 Jul - 05:02:09 10° NW 05:09:11 39° N 05:15:53 10° ENE visible
22 Jul - 06:55:23 10° WNW 07:02:22 42° N 07:08:55 10° ENE visible
22 Jul - 08:49:24 10° WNW 08:55:19 28° NNW 09:00:54 10° NE daylight
22 Jul - 10:47:14 10° NW 10:47:48 10° NNW 10:48:22 10° NNW daylight
23 Jul - 02:10:29 10° N 02:15:10 17° NNE 02:19:48 10° ENE visible
23 Jul - 04:01:14 10° NW 04:08:07 34° NNE 04:14:46 10° ENE visible
23 Jul - 05:54:08 10° WNW 06:01:20 44° N 06:08:06 10° ENE visible
23 Jul - 07:47:53 10° WNW 07:54:26 34° NNW 08:00:33 10° NE daylight
23 Jul - 09:43:05 10° WNW 09:47:04 16° NNW 09:50:55 10° N daylight
24 Jul - 01:11:43 10° NNE 01:14:14 12° NNE 01:16:45 10° NE night (unlit)
24 Jul - 03:00:33 10° NW 03:07:03 29° NNE 03:13:27 10° ENE visible
24 Jul - 04:52:58 10° WNW 05:00:13 43° N 05:07:10 10° ENE visible
24 Jul - 06:46:28 10° WNW 06:53:26 39° N 06:59:59 10° ENE visible
24 Jul - 08:40:55 10° WNW 08:46:18 22° NNW 08:51:23 10° NNE daylight
25 Jul - 02:00:11 10° NNW 02:06:02 23° NNE 02:11:52 10° ENE visible
25 Jul - 03:51:55 10° NW 03:59:06 40° N 04:06:06 10° ENE visible
25 Jul - 05:45:08 10° WNW 05:52:22 43° N 05:59:14 10° ENE visible
25 Jul - 07:39:10 10° WNW 07:45:25 29° NNW 07:51:19 10° NE daylight
25 Jul - 09:36:22 10° NW 09:37:58 11° NNW 09:39:32 10° NNW daylight
26 Jul - 01:00:19 10° N 01:05:04 17° NNE 01:09:50 10° ENE night (unlit)
26 Jul - 02:51:03 10° NW 02:58:00 35° NNE 03:04:53 10° ENE visible
26 Jul - 04:43:53 10° WNW 04:51:16 45° N 04:58:21 10° ENE visible
26 Jul - 06:37:38 10° WNW 06:44:26 35° NNW 06:50:55 10° NE visible
26 Jul - 08:32:50 10° WNW 08:37:11 17° NNW 08:41:24 10° N daylight
27 Jul - 00:01:36 10° NNE 00:04:09 12° NNE 00:06:42 10° NE night (unlit)
27 Jul - 01:50:25 10° NW 01:56:55 29° NNE 02:03:29 10° ENE night (unlit)
27 Jul - 03:42:46 10° WNW 03:50:07 44° N 03:57:19 10° ENE visible
27 Jul - 05:36:13 10° WNW 05:43:23 40° N 05:50:16 10° ENE visible
27 Jul - 07:30:40 10° WNW 07:36:21 23° NNW 07:41:46 10° NNE daylight
28 Jul - 00:50:07 10° NNW 00:55:55 23° NNE 01:01:49 10° ENE night (unlit)
28 Jul - 02:41:47 10° WNW 02:48:58 40° N 02:56:09 10° ENE visible
28 Jul - 04:34:56 10° WNW 04:42:17 44° N 04:49:25 10° ENE visible
28 Jul - 06:28:55 10° WNW 06:35:24 29° NNW 06:41:37 10° NE visible
28 Jul - 08:25:48 10° NW 08:28:03 11° NNW 08:30:14 10° NNW daylight
28 Jul - 23:50:21 10° N 23:54:58 17° NNE 23:59:42 10° ENE night (unlit)
